User: anonymous   Login
Location: S�tio Afonso Gruber
(26.1760°S, 49.5250°W)
Time: 18:56:16
(UTC+00:00)
Language:

CZ-4 R/B - Orbit

View from above orbital plane
View from above orbital plane
View from above satellite
View from above satellite

Ground track
Ground track

The orbit data is extracted from the following two-line orbital elements,

1 29507U 06046C   21169.55687783  .00001053  00000-0  85594-4 0  9991
2 29507  97.7419 195.4796 0048140  13.5917 346.6591 15.00924794800278
Epoch (UTC): 18 June 2021 13:21:54
Eccentricity: 0.0048140
inclination: 97.7419°
perigee height: 530 km
apogee height: 597 km
right ascension of ascending node: 195.4796°
argument of perigee: 13.5917°
revolutions per day: 15.00924794
mean anomaly at epoch: 346.6591°
orbit number at epoch: 80027

The dashed part of the orbit path shows where the satellite is in the earth's shadow,  

DLR